Location: Asheville, NC
(35.6000°N, 82.5500°W)
Time: 23:35:16
(UTC-04:00)

Vanguard 2 Rocket - Pass Details

Date: 09 December 2017
Orbit: 553 x 3328 km, 32.9° (Epoch: 25 April)

Event Time Altitude Azimuth Distance (km) Brightness Sun altitude
Rises 19:10:21 0° 218° (SW) 4,951 11.4 -22.4°
Reaches altitude 10° 19:13:20 10° 211° (SSW) 4,287 10.9 -23.0°
Maximum altitude 19:25:09 45° 143° (SE) 3,307 9.4 -25.3°
Enters shadow 19:32:23 33° 100° (E) 4,224 9.7 -26.8°
Drops below altitude 10° 19:42:42 10° 80° (E) 6,233 - -28.8°
Sets 19:48:05 0° 75° (ENE) 7,321 - -29.9°
